Location: Bletchingley
(51.2333°N, 0.1000°W)
Time: 15:01:40
(UTC+00:00)

Cosmos 2266 Rocket - Pass Details

Date: 25 January 2021
Orbit: 934 x 1008 km, 82.9° (Epoch: 05 March)

Event Time Altitude Azimuth Distance (km) Brightness Sun altitude
Rises 21:26:10 0° 231° (SW) 3,678 7.2 -43.9°
Enters shadow 21:28:58 - 244° (WSW) 2,800 6.7 -44.3°
Exits shadow 21:39:30 - 353° (N) 2,839 6.7 -45.7°
Sets 21:42:02 0° 4° (N) 3,633 7.3 -46.0°
